[[{"header":{"parameterUnit":"m.s-1","parameterCategory":1,"la1":30.2992,"la2":30.254,"lo1":-89.0895,"lo2":-89.0443,"dy":0.0025,"dx":0.0025,"nx":19,"ny":19,"refTime":"2026-03-25T03:00:00:Z","depth":0,"parameterNumber":2,"parameterNumberName":"U-component_of_WINDS"},"data":[0,0,0,-1.4024,-1.4024,-1.4005,-1.4005,-1.3996,-1.3996,0,0,0,0,0,0,0,0,0,0,0,-1.4038,-1.4038,-1.4024,-1.4024,-1.4005,-1.4005,-1.3996,-1.3996,0,0,0,0,0,0,0,0,0,0,0,-1.4038,-1.4038,-1.4038,-1.4024,-1.4005,-1.4005,-1.3996,-1.4005,0,0,0,0,0,0,0,0,0,0,-1.4021,-1.4042,-1.4038,-1.4038,-1.4024,-1.4005,-1.4005,-1.4005,-1.4005,-1.4011,0,-1.4019,0,-1.4007,-1.3997,-1.3997,0,0,0,-1.4017,-1.4042,-1.403,-1.4038,-1.4023,-1.4005,-1.4012,-1.4005,-1.4004,-1.401,-1.4018,-1.4018,-1.4007,-1.3997,-1.3997,-1.4055,-1.4055,0,0,-1.4018,-1.4039,-1.403,-1.403,-1.4032,-1.4012,-1.4011,-1.4004,-1.4014,-1.4018,-1.4017,-1.4007,-1.3997,-1.3997,-1.4054,-1.4055,0,0,0,-1.4026,-1.404,-1.4027,-1.403,-1.4026,-1.4012,-1.401,-1.4015,-1.4009,-1.4017,-1.4007,-1.3997,-1.3997,-1.4054,-1.4055,-1.4103,0,0,0,-1.4026,-1.4044,-1.4028,-1.4041,-1.4026,-1.402,-1.4022,-1.4009,-1.4008,-1.4007,-1.3997,-1.3997,-1.4053,-1.4054,-1.41,-1.4122,0,0,0,-1.4036,-1.4045,-1.4046,-1.4042,-1.4034,-1.4019,-1.4013,-1.4008,-1.4002,-1.3997,-1.3997,-1.4053,-1.4054,-1.4098,-1.4118,-1.4144,0,0,0,-1.4053,-1.4088,-1.4047,-1.4082,-1.4035,-1.4049,-1.4012,-1.4022,-1.4023,-1.3997,-1.4053,-1.4055,-1.4097,-1.4116,-1.4142,-1.417,-1.4184,0,0,-1.4109,-1.4096,-1.4115,-1.4077,-1.4105,-1.405,-1.4085,-1.4066,-1.4047,-1.4054,-1.4055,-1.4101,-1.4118,-1.4144,-1.4253,-1.4264,0,0,0,-1.414,-1.4154,-1.4157,-1.4159,-1.4146,-1.4137,-1.4111,-1.4104,-1.4109,-1.4054,-1.4117,-1.4126,-1.414,-1.4153,-1.4163,-1.4174,-1.4061,-1.4061,-1.4061,-1.4249,-1.4223,-1.4253,-1.4225,-1.4228,-1.4201,-1.4201,-1.4188,-1.416,-1.4175,-1.4177,-1.4246,-1.4262,-1.4268,-1.4281,-1.4189,-1.419,-1.419,-1.419,-1.4329,-1.4346,-1.4308,-1.4325,-1.4297,-1.4311,-1.4287,-1.4267,-1.4277,-1.4242,-1.4253,-1.4218,-1.4281,-1.4291,-1.4193,-1.4193,-1.4192,-1.4192,-1.4192,-1.4398,-1.4402,-1.4393,-1.4394,-1.4398,-1.4368,-1.4379,-1.4353,-1.4329,-1.434,-1.434,-1.4339,-1.4336,-1.4342,-1.4342,-1.4342,-1.4343,-1.4343,-1.4343,-1.4474,-1.4462,-1.4474,-1.4464,-1.4463,-1.4458,-1.4432,-1.443,-1.4422,-1.4402,-1.4402,-1.4374,-1.4292,-1.4273,-1.4347,-1.4346,-1.4345,-1.4345,-1.4345,-1.4566,-1.4541,-1.456,-1.4559,-1.4545,-1.4552,-1.4518,-1.4517,-1.4512,-1.4519,-1.4488,-1.4431,-1.4416,-1.4408,-1.4392,-1.4493,-1.4493,-1.4493,-1.4493,-1.4625,-1.4615,-1.4628,-1.4628,-1.4625,-1.4597,-1.4621,-1.4602,-1.4578,-1.4574,-1.4556,-1.4532,-1.4525,-1.4514,-1.4504,-1.4488,-1.4611,-1.4611,-1.4611,-1.4681,-1.4669,-1.4694,-1.467,-1.4657,-1.4648,-1.467,-1.4672,-1.464,-1.4615,-1.457,-1.4565,-1.4526,-1.4515,-1.4489,-1.4474,-1.4445,0,0]},{"header":{"parameterUnit":"m.s-1","parameterCategory":1,"la1":30.2992,"la2":30.254,"lo1":-89.0895,"lo2":-89.0443,"dy":0.0025,"dx":0.0025,"nx":19,"ny":19,"refTime":"2026-03-25T03:00:00:Z","depth":0,"parameterNumber":3,"parameterNumberName":"V-component_of_WINDS"},"data":[0,0,0,3.1135,3.1135,3.1136,3.1136,3.1135,3.1135,0,0,0,0,0,0,0,0,0,0,0,3.1133,3.1133,3.1135,3.1135,3.1136,3.1136,3.1135,3.1135,0,0,0,0,0,0,0,0,0,0,0,3.1133,3.1133,3.1133,3.1135,3.1136,3.1136,3.1135,3.1135,0,0,0,0,0,0,0,0,0,0,3.1134,3.1131,3.1133,3.1133,3.1135,3.1136,3.1136,3.1135,3.1135,3.1133,0,3.1132,0,3.1133,3.1134,3.1134,0,0,0,3.1135,3.1131,3.1133,3.1133,3.1135,3.1136,3.1136,3.1135,3.1135,3.1133,3.1132,3.1132,3.1133,3.1134,3.1134,3.1126,3.1126,0,0,3.1135,3.1133,3.1133,3.1133,3.1134,3.1136,3.1136,3.1135,3.1133,3.1132,3.1132,3.1133,3.1134,3.1134,3.1126,3.1126,0,0,0,3.1135,3.1132,3.1134,3.1133,3.1134,3.1136,3.1136,3.1133,3.1134,3.1132,3.1133,3.1134,3.1134,3.1126,3.1126,3.1121,0,0,0,3.1135,3.1132,3.1134,3.1132,3.1134,3.1134,3.1134,3.1134,3.1134,3.1133,3.1134,3.1134,3.1126,3.1126,3.1122,3.1119,0,0,0,3.1134,3.1132,3.1132,3.1132,3.1133,3.1134,3.1134,3.1134,3.1135,3.1134,3.1134,3.1127,3.1126,3.1122,3.1119,3.1116,0,0,0,3.1131,3.1126,3.1132,3.1127,3.1133,3.1131,3.1134,3.1133,3.1132,3.1134,3.1126,3.1126,3.1122,3.112,3.1117,3.1113,3.1112,0,0,3.1123,3.1125,3.1123,3.1128,3.1124,3.1131,3.1126,3.1127,3.1129,3.1127,3.1127,3.1121,3.1119,3.1116,3.1104,3.1103,0,0,0,3.1119,3.1118,3.1117,3.1117,3.1119,3.112,3.1122,3.1123,3.1122,3.1128,3.112,3.1118,3.1117,3.1115,3.1114,3.1113,3.1126,3.1126,3.1126,3.1104,3.1108,3.1104,3.1109,3.1108,3.1112,3.1112,3.1113,3.1116,3.1114,3.1113,3.1106,3.1104,3.1103,3.1102,3.1112,3.1112,3.1112,3.1112,3.1093,3.1091,3.1097,3.1096,3.11,3.1098,3.1101,3.1104,3.1102,3.1106,3.1105,3.1108,3.1102,3.1101,3.1111,3.1111,3.1112,3.1112,3.1112,3.1083,3.1083,3.1085,3.1086,3.1086,3.1091,3.109,3.1093,3.1096,3.1095,3.1095,3.1095,3.1096,3.1095,3.1095,3.1095,3.1095,3.1095,3.1095,3.1072,3.1075,3.1074,3.1077,3.1078,3.1079,3.1083,3.1084,3.1086,3.1088,3.1088,3.1091,3.11,3.1103,3.1094,3.1095,3.1095,3.1095,3.1095,3.1059,3.1063,3.1062,3.1063,3.1067,3.1067,3.1073,3.1074,3.1075,3.1075,3.1079,3.1085,3.1086,3.1087,3.1089,3.1078,3.1078,3.1078,3.1078,3.1051,3.1053,3.1053,3.1055,3.1057,3.1062,3.106,3.1064,3.1068,3.1069,3.1071,3.1074,3.1075,3.1076,3.1077,3.1078,3.1065,3.1065,3.1065,3.1043,3.1046,3.1044,3.1049,3.1053,3.1056,3.1055,3.1056,3.1061,3.1064,3.107,3.107,3.1075,3.1076,3.1078,3.108,3.1083,0,0]}]]